This demonstration page uses our WeatherBlox Daily Observations layout. Learn more.

41.55636, -103.73856

Hourly Observations for March 21, 2019

Temp ( °F °C ) Dew Point ( °F °C ) Humidity (%) Winds ( mph kmh ) Pressure ( in mb ) Visibility ( mi km ) Precip ( " mm )
12:58 am 00:58 Clear 42 5.4 30 -1.3 62 62 NNW 10 17 30.34 1028 10 16.0934 0 0
1:58 am 01:58 Clear 37 2.9 29 -1.7 72 72 NW 12 19 30.37 1028 10 16.0934 0 0
2:58 am 02:58 Clear 36 2.1 27 -2.7 71 71 NNW 8 13 30.35 1028 10 16.0934 0 0
3:58 am 03:58 Clear 36 2 27 -3 70 70 W 8 13 30.33 1027 10 16.0934 0 0
4:58 am 04:58 Clear 33 0.7 26 -3.2 75 75 W 10 17 30.32 1027 10 16.0934 0 0
5:58 am 05:58 Clear 33 0.8 25 -4 71 71 W 8 13 30.32 1027 10 16.0934 0 0
6:58 am 06:58 Clear 33 0.8 24 -4.2 70 70 W 8 13 30.29 1026 10 16.0934 0 0
7:58 am 07:58 Clear 35 1.5 23 -4.8 63 63 W 7 11 30.27 1025 10 16.0934 0 0
8:58 am 08:58 Clear 39 4 22 -5.7 50 50 Calm 30.24 1024 10 16.0934 0 0
9:56 am 09:56 Clear 36 2 23 -5 60 60 SSW 8 13 30.24 1024 10 16.0934 0 0
10:56 am 10:56 Clear 35 1.6 22 -5.6 59 59 SW 9 15 30.24 1024 10 16.0934 0 0
11:58 am 11:58 Clear 35 1.4 21 -6 58 58 SW 9 15 30.24 1024 10 16.0934 0 0
12:58 pm 12:58 Sunny 33 0.6 21 -6 62 62 SW 12 19 30.26 1025 10 16.0934 0 0
1:58 pm 13:58 Sunny 35 1.7 23 -4.8 62 62 SSW 8 13 30.27 1025 10 16.0934 0 0
2:58 pm 14:58 Sunny 40 4.2 26 -3.2 59 59 SSW 8 13 30.26 1025 10 16.0934 0 0
3:58 pm 15:58 Sunny 43 6 29 -1.7 58 58 S 8 13 30.22 1023 10 16.0934 0 0
4:58 pm 16:58 Sunny 45 7.1 30 -1 57 57 S 8 13 30.21 1023 10 16.0934 0 0
5:58 pm 17:58 Sunny 49 9.6 32 0 52 52 S 10 17 30.17 1022 10 16.0934 0 0
6:58 pm 18:58 Sunny 53 11.4 28 -2.2 39 39 S 14 22 30.14 1021 10 16.0934 0 0
7:58 pm 19:58 Sunny 54 12.4 26 -3.2 34 34 S 14 22 30.1 1019 10 16.0934 0 0
8:58 pm 20:58 Sunny 56 13.3 26 -3.3 32 32 SSE 15 24 30.06 1018 10 16.0934 0 0
9:58 pm 21:58 Sunny 54 12.3 26 -3.1 34 34 S 13 20 30.08 1019 10 16.0934 0 0
10:58 pm 22:58 Sunny 52 11 31 -0.5 45 45 SE 8 13 30.09 1019 10 16.0934 0 0

Powered by AerisWeather